This demonstration page uses our WeatherBlox Daily Observations layout. Learn more.

39.08367, -84.50855

Hourly Observations for June 12, 2019

Temp ( °F °C ) Dew Point ( °F °C ) Humidity (%) Winds ( mph kmh ) Pressure ( in mb ) Visibility ( mi km ) Precip ( " mm )
12:53 am 00:53 Clear 56 13.3 53 11.7 90 90 undefined N/A 30.09 1019 10 16.09344 0 0
1:53 am 01:53 Clear 55 12.8 53 11.7 93 93 VRB 6 9 30.09 1019 10 16.09344 0 0
2:53 am 02:53 Clear 54 12.2 53 11.7 97 97 VRB 6 9 30.06 1018 10 16.09344 0 0
3:53 am 03:53 Clear with Mist and Fog 52 11.1 51 10.6 97 97 VRB 3 6 30.06 1018 5 8.04672 0 0
4:53 am 04:53 Clear 52 11.1 51 10.6 97 97 VRB 3 6 30.06 1018 10 16.09344 0 0
5:53 am 05:53 Clear 53 11.7 51 10.6 93 93 VRB 5 7 30.06 1018 10 16.09344 0 0
6:53 am 06:53 Sunny 53 11.7 52 11.1 96 96 Calm 30.06 1018 10 16.09344 0 0
7:53 am 07:53 Sunny 58 14.4 54 12.2 87 87 VRB 6 9 30.03 1017 10 16.09344 0 0
8:53 am 08:53 Sunny 62 16.7 55 12.8 78 78 NNE 5 7 30 1016 10 16.09344 0 0
9:53 am 09:53 Sunny 69 20.6 56 13.3 63 63 NE 6 9 29.97 1015 10 16.09344 0 0
10:53 am 10:53 Sunny 72 22.2 54 12.2 53 53 SSE 7 11 29.94 1014 10 16.09344 0 0
11:53 am 11:53 Sunny 73 22.8 54 12.2 51 51 SSW 9 15 29.94 1014 10 16.09344 0 0
12:53 pm 12:53 Sunny 74 23.3 57 13.9 56 56 SSE 9 15 29.91 1013 10 16.09344 0 0
1:53 pm 13:53 Sunny 73 22.8 57 13.9 57 57 S 8 13 29.88 1012 10 16.09344 0 0
2:53 pm 14:53 Partly Cloudy 74 23.3 59 15 60 60 S 9 15 29.88 1012 10 16.09344 0 0
3:53 pm 15:53 Mostly Cloudy 75 23.9 60 15.6 60 60 SSW 8 13 29.85 1011 10 16.09344 0 0
4:53 pm 16:53 Mostly Cloudy with Light Rain 75 23.9 60 15.6 60 60 S 12 19 29.83 1010 10 16.09344 0.001 0.001
5:53 pm 17:53 Cloudy 72 22.2 61 16.1 68 68 S 7 11 29.83 1010 10 16.09344 0.001 0.001
6:53 pm 18:53 Cloudy with Light Rain 70 21.1 62 16.7 76 76 S 10 17 29.8 1009 10 16.09344 0.001 0.001
7:23 pm 19:23 Cloudy with Heavy Rain 67 19.4 63 17.2 87 87 S 10 17 29.83 1010 1.75 2.816352 0.1 2.54
7:36 pm 19:36 Cloudy with Light Rain 66 18.9 64 17.8 93 93 S 7 11 29.83 1010 3 4.828032 0.19 4.826
7:53 pm 19:53 Cloudy with Light Rain 66 18.9 64 17.8 93 93 S 8 13 29.83 1010 10 16.09344 0.19 4.826
8:53 pm 20:53 Cloudy with Light Rain 65 18.3 63 17.2 93 93 SSE 6 9 29.8 1009 7 11.265408 0.04 1.016
9:53 pm 21:53 Mostly Clear 64 17.8 62 16.7 93 93 SSW 5 7 29.8 1009 10 16.09344 0.001 0.001
10:53 pm 22:53 Partly Cloudy 64 17.8 62 16.7 93 93 S 8 13 29.8 1009 10 16.09344 0 0
11:51 pm 23:51 Cloudy 64 18 63 17 94 94 S 5 7 29.8 1009 10 16.09344 0.001 0.001
11:53 pm 23:53 Cloudy 64 17.8 62 16.7 93 93 S 7 11 29.8 1009 10 16.09344 0.001 0.001

Powered by AerisWeather